Regional Weather Roundup
Issued by NWS

Home | Current Version | Previous Version | Graphics & Text | Print | Product List | Glossary On
Versions: 1 2 3 4 5 6 7 8 9 10 11 12 13 14 15 16 17 18 19 20 21 22 23 24 25 26 27 28 29 30 31 32 33 34 35 36 37 38 39 40 41 42 43 44 45 46 47 48 49 50
000
ASUS43 KMKX 230400
RWRWI

WISCONSIN REGIONAL WEATHER ROUNDUP
NATIONAL WEATHER SERVICE MILWAUKEE/SULLIVAN WI
1100 PM CDT WED OCT 22 2014

NOTE: "FAIR" INDICATES FEW OR NO CLOUDS BELOW 12,000 FEET WITH NO
SIGNIFICANT WEATHER AND/OR OBSTRUCTIONS TO VISIBILITY.

WIZ001-002-006>008-014>016-023>028-230500-
NORTHWEST WISCONSIN

CITY           SKY/WX    TMP DP  RH WIND       PRES   REMARKS
SUPERIOR ARPT  MOCLDY    48  35  60 CALM      30.04S
ASHLAND        CLOUDY    53  35  50 S10G20    30.08S
HAYWARD        CLOUDY    53  36  52 S13       30.09R
SIREN          CLOUDY    55  36  50 S10G21    30.06F
CUMBERLAND     CLOUDY    50  37  62 S7        30.10R
RICE LAKE      CLOUDY    49  40  70 SE10      30.10F
CHETEK         CLOUDY    48  42  81 E8        30.10F
LADYSMITH      LGT RAIN  50  38  64 SE10G16   30.15S
EAU CLAIRE     NOT AVBL
MENOMONIE      CLOUDY    50  41  71 E7        30.10F
NEW RICHMOND   CLOUDY    54  38  55 S13       30.08F
OSCEOLA        CLOUDY    54  39  58 SE8       30.09F
$$

WIZ003>005-009-010-017-018-230500-
NORTH CENTRAL WISCONSIN

CITY           SKY/WX    TMP DP  RH WIND       PRES   REMARKS
MANITOWISH WTR PTCLDY    44  35  68 S12G17    30.14S
ARBOR VITAE    CLOUDY    46  36  69 S8        30.15F
WOODRUFF       CLOUDY    46  36  69 S8        30.15F
RHINELANDER    MOCLDY    43  35  73 S9        30.18F
EAGLE RIVER    PTCLDY    40  32  74 CALM      30.16F
LAND O LAKES   PTCLDY    43  34  71 S8        30.16F
PHILLIPS       CLOUDY    47  35  63 S9        30.13F
TOMAHAWK       CLOUDY    42  35  76 CALM      30.17F
MEDFORD        MOCLDY    44  35  72 SE6       30.16F
MERRILL        CLEAR     40  36  84 SE6       30.19S
$$

WIZ029-030-035-036-043>047-230500-
CENTRAL WISCONSIN

CITY           SKY/WX    TMP DP  RH WIND       PRES   REMARKS
WAUSAU         CLEAR     41  36  82 E5        30.19S
MOSINEE        CLEAR     41  36  81 SE7       30.20S
MARSHFIELD     CLEAR     44  36  73 S7        30.17F
STEVENS POINT  CLEAR     38  34  86 E5        30.21S WCI  34
WAUPACA        CLEAR     43  40  90 SE8       30.23S
WAUTOMA        NOT AVBL
WISC RAPIDS    CLEAR     43  35  73 SE8       30.20F
CAMP DOUGLAS   NOT AVBL
$$

WIZ011>013-019>022-031-037>040-048>050-230500-
NORTHEAST WISCONSIN

CITY           SKY/WX    TMP DP  RH WIND       PRES   REMARKS
ANTIGO         CLEAR     36  35  97 SE7       30.21S WCI  30
SHAWANO        CLEAR     41  37  87 S3        30.24S
OCONTO         CLEAR     41  40  96 S6        30.25F
STURGEON BAY   CLEAR     39  36  87 S7        30.26F WCI  34
GREEN BAY      CLEAR     38  36  92 S3        30.25F
MANITOWOC      NOT AVBL
APPLETON       PTCLDY    41  39  93 SE8       30.24F
CLINTONVILLE   CLEAR     37  36  93 CALM      30.23S
OSHKOSH        CLEAR     40  37  89 S8        30.23F WCI  34
$$

WIZ032>034-041-042-053>061-230500-
SOUTHWEST WISCONSIN

CITY           SKY/WX    TMP DP  RH WIND       PRES   REMARKS
LA CROSSE      MOCLDY    54  37  52 S9        30.15F
SPARTA         PTCLDY    47  35  63 SE3       30.17
VIROQUA        MOCLDY    48  36  62 S6        30.17S
BOSCOBEL       PTCLDY    40  36  86 N3        30.20S
PRAIRIE DU CHI MOCLDY    49  36  59 E7        30.18S
PLATTEVILLE    PTCLDY    45  35  69 SE9       30.21S
$$

WIZ056-057-062-063-064-067-068-230500-
SOUTH CENTRAL WISCONSIN

CITY           SKY/WX    TMP DP  RH WIND       PRES   REMARKS
REEDSBURG      CLEAR     46  35  65 SE3       30.19F
BARABOO/DELLS  CLEAR     46  34  64 S6        30.20F
LONE ROCK      NOT AVBL
MINERAL POINT  CLEAR     45  34  65 SE8       30.20F
MADISON        PTCLDY    44  38  79 S10       30.23F
MIDDLETON      CLEAR     38  36  90 SE5       30.23F WCI  35
WATERTOWN      CLEAR     38  38  98 CALM      30.26S
MONROE         CLEAR     43  36  75 SE9       30.23F
JANESVILLE     CLEAR     39  36  87 SE3       30.25F
$$

WIZ051-052-058>065-066-070>072-230500-
SOUTHEAST WISCONSIN

CITY           SKY/WX    TMP DP  RH WIND       PRES   REMARKS
MILWAUKEE      CLEAR     37  33  85 CALM      30.27S
WAUKESHA       CLEAR     37  36  93 S5        30.28S WCI  34
MILWAUKEE/TIMM CLEAR     39  36  87 CALM      30.28S
RACINE         CLEAR     36  33  89 CALM      30.29S
BURLINGTON     FOG       31  31 100 CALM      30.27S VSB 3/4
KENOSHA        CLEAR     36  34  92 CALM      30.27F
FOND DU LAC    CLEAR     38  35  89 S7        30.25S WCI  33
SHEBOYGAN      CLEAR     31  30  96 CALM      30.27S FOG
WEST BEND      CLEAR     34  32  93 CALM      30.27S FOG
JUNEAU         CLEAR     38  36  93 SE6       30.26F FOG     WCI  33
$$

LSZ147-162-230500-
LAKE SUPERIOR

STATION/POSITION TIME  TEMP    WIND        PRES    WAVE
                       AIR SEA DIR/SP/G            HT/PER
                 (UTC) (F)     (DEG/KT/KT) (MB)    (FT/S)
W MID LAKE BUOY  0250   49 46  160/ 10/ 12 1019.3F   2/ 3
DEVILS ISLAND    0300   54     180/  7/  8 1018.7F
PORT WING        0340   49     130/  2/  3 1017.6F
SAXON HARBOR     0300   55     200/  9/ 15 1017.9F
$$

LMZ867-665-643>646-230500-
LAKE MICHIGAN

STATION/POSITION TIME  TEMP    WIND        PRES    WAVE
                       AIR SEA DIR/SP/G            HT/PER
                 (UTC) (F)     (DEG/KT/KT) (MB)    (FT/S)
CHAMBERS ISLAND  0300   41     150/  3/  5 1025.1
N MID LAKE BUOY  0250   46 51  170/ 10/ 12 1025.7S   0
NORTHPORT PIER   0300   42     160/  2/  5 1024.7F
SISTER BAY       0212          150/  9/ 11   N/A
KEWAUNEE LAKESHO 0300   40     290/  3/  4 1024.1S
SHEBOYGAN LAKESH 0300   47 51  210/  7/ 10 1025.7S
PORT WASHINGTON  0340   44     270/  2/  4 1025.7S
ATWATER BUOY     0300   48     160/  8/ 10 1025.9S
MILWAUKEE LAKESH 0300   47     200/  5/  7   N/A
S MID LAKE BUOY  0250   50 54  110/ 10/ 12 1025.7R   1
KENOSHA   LAKESH 0300   48     160/  8/  9 1025.1R
$$

TC  - TEMPERATURE IN CELSIUS
VSB - VISIBILITY IN STATUTE MILES
WCI - WIND CHILL INDEX
HX  - HEAT INDEX




USA.gov is the U.S. government's official web portal to all federal, state and local government web resources and services.